Hourly Weather Kłecko

Today, 25 July, Sunday

Time Temperature Precipitation Wind Pressure Humidity
00:00 +19°C° 0 mm 3 mps 751 mmHg 73%
01:00 +18°C° 0 mm 3 mps 751 mmHg 74%
02:00 +18°C° 0 mm 3 mps 751 mmHg 75%
03:00 +18°C° 0 mm 3 mps 750 mmHg 76%
04:00 +18°C° 0 mm 3 mps 750 mmHg 76%
05:00 +19°C° 0 mm 3 mps 750 mmHg 72%
06:00 +21°C° 0 mm 3 mps 750 mmHg 68%
07:00 +22°C° 0 mm 4 mps 750 mmHg 63%
08:00 +23°C° 0 mm 4 mps 750 mmHg 60%
09:00 +26°C° 0 mm 4 mps 750 mmHg 57%
10:00 +27°C° 0 mm 4 mps 750 mmHg 53%
11:00 +28°C° 0 mm 5 mps 750 mmHg 50%
12:00 +29°C° 0 mm 5 mps 750 mmHg 47%
13:00 +29°C° 0 mm 5 mps 750 mmHg 43%
14:00 +29°C° 0 mm 5 mps 750 mmHg 47%
15:00 +28°C° 0 mm 4 mps 750 mmHg 51%
16:00 +27°C° 0 mm 3 mps 750 mmHg 55%
17:00 +26°C° 0 mm 3 mps 750 mmHg 59%
18:00 +25°C° 0 mm 2 mps 750 mmHg 64%
19:00 +24°C° 0 mm 2 mps 750 mmHg 68%
20:00 +23°C° 0 mm 2 mps 750 mmHg 71%
21:00 +21°C° 0 mm 2 mps 750 mmHg 74%
22:00 +20°C° 0 mm 2 mps 750 mmHg 76%
23:00 +19°C° 0 mm 2 mps 750 mmHg 79%

Tomorrow, 26 July, Monday

Time Temperature Precipitation Wind Pressure Humidity
00:00 +19°C° 0 mm 2 mps 750 mmHg 82%
01:00 +18°C° 0 mm 3 mps 750 mmHg 85%
02:00 +18°C° 0 mm 2 mps 750 mmHg 84%
03:00 +18°C° 0 mm 2 mps 750 mmHg 82%
04:00 +19°C° 0 mm 2 mps 749 mmHg 81%
05:00 +20°C° 0 mm 3 mps 749 mmHg 77%
06:00 +21°C° 0 mm 3 mps 749 mmHg 74%
07:00 +22°C° 0 mm 3 mps 749 mmHg 70%
08:00 +24°C° 0 mm 3 mps 749 mmHg 65%
09:00 +26°C° 0 mm 2 mps 749 mmHg 60%
10:00 +27°C° 0 mm 2 mps 749 mmHg 55%
11:00 +28°C° 0 mm 2 mps 749 mmHg 52%
12:00 +30°C° 0 mm 1 mps 749 mmHg 48%
13:00 +31°C° 0 mm 1 mps 749 mmHg 45%
14:00 +30°C° 0 mm 1 mps 749 mmHg 46%
15:00 +30°C° 0 mm 1 mps 749 mmHg 46%
16:00 +30°C° 0 mm 1 mps 749 mmHg 46%
17:00 +29°C° 0 mm 2 mps 748 mmHg 51%
18:00 +28°C° 0 mm 2 mps 748 mmHg 56%
19:00 +27°C° 0 mm 2 mps 748 mmHg 60%
20:00 +26°C° 0 mm 2 mps 748 mmHg 63%
21:00 +25°C° 0 mm 1 mps 748 mmHg 66%
22:00 +24°C° 0 mm 1 mps 748 mmHg 69%
23:00 +23°C° 0 mm 1 mps 749 mmHg 71%

Day after tomorrow, 27 July, Tuesday

Time Temperature Precipitation Wind Pressure Humidity
00:00 +22°C° 0 mm 1 mps 749 mmHg 74%
01:00 +21°C° 0 mm 2 mps 749 mmHg 77%
02:00 +20°C° 0 mm 2 mps 749 mmHg 80%
03:00 +20°C° 0 mm 2 mps 749 mmHg 83%
04:00 +19°C° 0 mm 3 mps 749 mmHg 86%
05:00 +20°C° 0.1 mm 3 mps 749 mmHg 83%
06:00 +21°C° 0.1 mm 3 mps 750 mmHg 81%
07:00 +22°C° 0.1 mm 4 mps 750 mmHg 78%
08:00 +22°C° 0 mm 4 mps 750 mmHg 77%
09:00 +22°C° 0 mm 4 mps 750 mmHg 76%
10:00 +22°C° 0 mm 4 mps 750 mmHg 75%
11:00 +25°C° 0 mm 4 mps 750 mmHg 66%
12:00 +27°C° 0 mm 4 mps 750 mmHg 57%
13:00 +29°C° 0 mm 4 mps 750 mmHg 49%
14:00 +29°C° 0 mm 4 mps 750 mmHg 46%
15:00 +30°C° 0 mm 4 mps 750 mmHg 43%
16:00 +30°C° 0 mm 4 mps 750 mmHg 40%
17:00 +29°C° 0 mm 3 mps 750 mmHg 44%
18:00 +28°C° 0 mm 3 mps 750 mmHg 47%
19:00 +27°C° 0 mm 2 mps 750 mmHg 51%
20:00 +26°C° 0 mm 2 mps 750 mmHg 53%
21:00 +25°C° 0 mm 2 mps 750 mmHg 55%
22:00 +24°C° 0 mm 1 mps 750 mmHg 58%
23:00 +23°C° 0 mm 2 mps 750 mmHg 61%

28 July, Wednesday

Time Temperature Precipitation Wind Pressure Humidity
00:00 +21°C° 0 mm 2 mps 751 mmHg 63%
01:00 +20°C° 0 mm 2 mps 751 mmHg 66%
02:00 +20°C° 0 mm 2 mps 750 mmHg 68%
03:00 +19°C° 0 mm 2 mps 750 mmHg 69%
04:00 +19°C° 0 mm 3 mps 750 mmHg 70%
05:00 +21°C° 0 mm 3 mps 750 mmHg 67%
06:00 +22°C° 0 mm 3 mps 750 mmHg 63%
07:00 +25°C° 0 mm 3 mps 751 mmHg 60%
08:00 +26°C° 0 mm 4 mps 750 mmHg 55%
09:00 +27°C° 0 mm 4 mps 750 mmHg 50%
10:00 +29°C° 0 mm 4 mps 750 mmHg 46%
11:00 +29°C° 0 mm 4 mps 750 mmHg 44%
12:00 +30°C° 0 mm 4 mps 750 mmHg 41%
13:00 +30°C° 0 mm 5 mps 750 mmHg 39%
14:00 +29°C° 0 mm 5 mps 750 mmHg 42%
15:00 +28°C° 0 mm 5 mps 750 mmHg 45%
16:00 +27°C° 0 mm 6 mps 751 mmHg 48%
17:00 +25°C° 0.2 mm 5 mps 751 mmHg 58%
18:00 +22°C° 0.2 mm 4 mps 751 mmHg 68%
19:00 +21°C° 0.2 mm 3 mps 751 mmHg 78%
20:00 +20°C° 0 mm 3 mps 751 mmHg 82%
21:00 +19°C° 0 mm 3 mps 751 mmHg 85%
22:00 +18°C° 0 mm 3 mps 751 mmHg 89%
23:00 +18°C° 0 mm 3 mps 751 mmHg 91%

29 July, Thursday

Time Temperature Precipitation Wind Pressure Humidity
00:00 +17°C° 0 mm 3 mps 752 mmHg 93%
01:00 +17°C° 0 mm 2 mps 752 mmHg 95%
02:00 +16°C° 0 mm 2 mps 752 mmHg 95%
03:00 +16°C° 0 mm 2 mps 752 mmHg 95%
04:00 +16°C° 0 mm 2 mps 752 mmHg 95%
05:00 +18°C° 0 mm 2 mps 752 mmHg 88%
06:00 +19°C° 0 mm 2 mps 752 mmHg 82%
07:00 +20°C° 0 mm 2 mps 752 mmHg 75%
08:00 +22°C° 0 mm 3 mps 752 mmHg 67%
09:00 +25°C° 0 mm 3 mps 752 mmHg 59%
10:00 +26°C° 0 mm 3 mps 752 mmHg 52%
11:00 +27°C° 0 mm 4 mps 752 mmHg 47%
12:00 +28°C° 0 mm 4 mps 751 mmHg 43%
13:00 +29°C° 0 mm 4 mps 751 mmHg 39%
14:00 +29°C° 0 mm 3 mps 751 mmHg 41%
15:00 +28°C° 0 mm 3 mps 751 mmHg 43%
16:00 +28°C° 0 mm 2 mps 750 mmHg 45%
17:00 +27°C° 0 mm 2 mps 750 mmHg 47%
18:00 +26°C° 0 mm 1 mps 750 mmHg 50%
19:00 +26°C° 0 mm 1 mps 750 mmHg 52%
20:00 +25°C° 0 mm 1 mps 750 mmHg 53%
21:00 +24°C° 0 mm 2 mps 749 mmHg 54%
22:00 +24°C° 0 mm 2 mps 749 mmHg 56%
23:00 +23°C° 0 mm 2 mps 749 mmHg 57%

30 July, Friday

Time Temperature Precipitation Wind Pressure Humidity
00:00 +23°C° 0 mm 2 mps 749 mmHg 58%
01:00 +21°C° 0 mm 2 mps 749 mmHg 59%
02:00 +21°C° 0 mm 2 mps 749 mmHg 60%
03:00 +21°C° 0 mm 2 mps 748 mmHg 60%
04:00 +21°C° 0 mm 2 mps 748 mmHg 61%
05:00 +21°C° 0.1 mm 3 mps 748 mmHg 63%
06:00 +22°C° 0.1 mm 3 mps 748 mmHg 65%
07:00 +22°C° 0.1 mm 4 mps 748 mmHg 67%
08:00 +23°C° 0.4 mm 4 mps 748 mmHg 66%
09:00 +25°C° 0.4 mm 4 mps 747 mmHg 65%
10:00 +26°C° 0.4 mm 4 mps 747 mmHg 63%
11:00 +27°C° 0.1 mm 5 mps 747 mmHg 61%
12:00 +28°C° 0.1 mm 6 mps 746 mmHg 58%
13:00 +29°C° 0.1 mm 7 mps 746 mmHg 55%
14:00 +28°C° 0.4 mm 6 mps 746 mmHg 59%
15:00 +27°C° 0.4 mm 6 mps 746 mmHg 64%
16:00 +26°C° 0.4 mm 5 mps 747 mmHg 68%
17:00 +25°C° 0 mm 5 mps 747 mmHg 67%
18:00 +25°C° 0 mm 4 mps 747 mmHg 67%
19:00 +24°C° 0 mm 3 mps 747 mmHg 67%
20:00 +22°C° 0 mm 3 mps 747 mmHg 68%
21:00 +21°C° 0 mm 3 mps 747 mmHg 70%
22:00 +20°C° 0 mm 2 mps 747 mmHg 71%
23:00 +19°C° 0 mm 2 mps 747 mmHg 74%
Show more